Weather History for KCRP - September, 2013

Change the Weather History Date:

Monday, September 16, 2013

  Actual Average Record
Temperature  
Mean Temperature 84 °F 81 °F  
Max Temperature 89 °F 90 °F 101 °F (1954)
Min Temperature 78 °F 72 °F 62 °F (1989)
Degree Days  
Heating Degree Days 0 0  
Month to date heating degree days 0 0  
Since 1 July heating degree days 0 0  
Cooling Degree Days 19 16  
Month to date cooling degree days 324 279  
Year to date cooling degree days 3337 2840  
Growing Degree Days 34 (Base 50)    
Moisture  
Dew Point 75 °F    
Average Humidity 80    
Maximum Humidity 91    
Minimum Humidity 68    
Precipitation  
Precipitation 1.18 in 0.18 in 5.60 in (1922)
Month to date precipitation 4.34 2.85  
Year to date precipitation 15.35 22.19  
Snow  
Snow 0.00 in - - ()
Month to date snowfall 0.0  
Since 1 July snowfall 0.0  
Since 1 September snowfall 0.0  
Snow Depth 0.00 in    
Sea Level Pressure  
Sea Level Pressure 29.93 in    
Wind  
Wind Speed 13 mph (East)    
Max Wind Speed 26 mph    
Max Gust Speed 35 mph    
Visibility 8 miles    
Events Rain , Thunderstorm    
T = Trace of Precipitation, MM = Missing Value Source: NWS Daily Summary

Daily Weather History Graph

Daily Weather History Graph

Search for Another Location

Airport or City:

Trip Planner

Search our weather history database for the weather conditions in past years. The results will help you decide how hot, cold, wet, or windy it might be!

Date:

Astronomy

Sep. 16, 2013 Rise Set
Actual Time 7:15 AM CDT 7:33 PM CDT
Civil Twilight 6:52 AM CDT 7:56 PM CDT
Nautical Twilight 6:25 AM CDT 8:23 PM CDT
Astronomical Twilight 5:57 AM CDT 8:51 PM CDT
Moon 5:33 PM CDT (9/16) 4:16 AM CDT (9/16)
Length of Visible Light 13h 04m
Length of Day
12h 17m
Waxing Gibbous, 90% of the Moon is Illuminated
Sep 16
Waxing Gibbous
Sep 19
Full
Sep 26
Last Quarter
Oct 4
New
Oct 11
First Quarter

Hourly Weather History & Observations

Time (CDT) Temp. Heat Index Dew Point Humidity Pressure Visibility Wind Dir Wind Speed Gust Speed Precip Events Conditions
12:51 AM 84.9 °F 93.3 °F 75.0 °F 72% 29.91 in 10.0 mi East 12.7 mph - N/A   Partly Cloudy
1:51 AM 82.9 °F 90.8 °F 75.9 °F 79% 29.91 in 10.0 mi ENE 11.5 mph - N/A   Partly Cloudy
2:45 AM 80.6 °F 86.2 °F 75.2 °F 84% 29.91 in 10.0 mi ENE 9.2 mph - 0.00 in Thunderstorm Thunderstorm
2:51 AM 82.0 °F 88.6 °F 75.0 °F 79% 29.91 in 10.0 mi East 16.1 mph 19.6 mph 0.00 in Thunderstorm Thunderstorm
3:29 AM 82.4 °F 88.2 °F 73.4 °F 74% 29.90 in 10.0 mi ENE 9.2 mph - N/A   Mostly Cloudy
3:51 AM 82.0 °F 88.6 °F 75.0 °F 79% 29.90 in 10.0 mi ENE 8.1 mph - N/A   Mostly Cloudy
4:04 AM 80.6 °F 86.2 °F 75.2 °F 84% 29.90 in 3.0 mi East 16.1 mph 21.9 mph 0.09 in Rain Heavy Rain
4:16 AM 78.8 °F - 73.4 °F 83% 29.90 in 9.0 mi ENE 9.2 mph - 0.31 in Rain , Thunderstorm Light Thunderstorms and Rain
4:37 AM 80.6 °F 86.2 °F 75.2 °F 84% 29.88 in 10.0 mi ENE 8.1 mph - 0.31 in   Scattered Clouds
4:51 AM 81.0 °F 87.9 °F 77.0 °F 88% 29.88 in 10.0 mi ENE 8.1 mph - 0.31 in   Partly Cloudy
5:51 AM 81.0 °F 87.3 °F 75.9 °F 85% 29.87 in 9.0 mi NNE 10.4 mph - 0.00 in Rain Light Rain
6:29 AM 80.6 °F 86.2 °F 75.2 °F 84% 29.89 in 10.0 mi ENE 10.4 mph - 0.02 in Rain , Thunderstorm Light Thunderstorms and Rain
6:51 AM 81.0 °F 87.3 °F 75.9 °F 85% 29.89 in 9.0 mi East 13.8 mph - 0.02 in Rain Light Rain
7:51 AM 80.1 °F 85.1 °F 75.0 °F 85% 29.92 in 10.0 mi East 8.1 mph - 0.13 in   Mostly Cloudy
8:41 AM 78.8 °F - 73.4 °F 83% 29.94 in 9.0 mi SE 8.1 mph - 0.00 in   Overcast
8:51 AM 79.0 °F - 73.9 °F 84% 29.94 in 9.0 mi SSE 8.1 mph - 0.00 in Rain Light Rain
9:35 AM 78.8 °F - 73.4 °F 83% 29.97 in 2.0 mi SE 19.6 mph 34.5 mph 0.01 in Rain Heavy Rain
9:37 AM 78.8 °F - 73.4 °F 83% 29.97 in 1.2 mi SE 16.1 mph 34.5 mph 0.05 in Rain Heavy Rain
9:44 AM 78.8 °F - 75.2 °F 89% 29.96 in 1.5 mi ESE 11.5 mph 21.9 mph 0.22 in Rain Heavy Rain
9:51 AM 78.1 °F - 75.0 °F 90% 29.94 in 1.5 mi ESE 6.9 mph - 0.29 in Rain Rain
9:53 AM 78.8 °F - 75.2 °F 89% 29.94 in 3.0 mi ESE 6.9 mph - 0.00 in Rain Light Rain
9:56 AM 78.8 °F - 75.2 °F 89% 29.94 in 5.0 mi ESE 6.9 mph - 0.00 in Rain Light Rain
10:05 AM 80.6 °F 86.2 °F 75.2 °F 84% 29.94 in 6.0 mi East 18.4 mph 23.0 mph 0.00 in Rain , Thunderstorm Light Thunderstorms and Rain
10:46 AM 82.4 °F 89.5 °F 75.2 °F 79% 29.95 in 10.0 mi ESE 11.5 mph - 0.02 in   Scattered Clouds
10:51 AM 82.0 °F 89.4 °F 75.9 °F 82% 29.95 in 10.0 mi ESE 12.7 mph - 0.02 in   Mostly Cloudy
11:00 AM 82.4 °F 89.5 °F 75.2 °F 79% 29.97 in 1.8 mi SE 21.9 mph 27.6 mph 0.02 in Rain Heavy Rain
11:10 AM 80.6 °F 86.2 °F 75.2 °F 84% 29.97 in 3.0 mi SE 13.8 mph 24.2 mph 0.10 in Rain Light Rain
11:25 AM 78.8 °F - 75.2 °F 89% 29.97 in 1.0 mi SE 21.9 mph 29.9 mph 0.13 in Rain Heavy Rain
11:35 AM 78.8 °F - 75.2 °F 89% 29.97 in 2.5 mi SE 15.0 mph 24.2 mph 0.31 in Rain Heavy Rain
11:38 AM 78.8 °F - 73.4 °F 83% 29.96 in 1.0 mi SE 19.6 mph 25.3 mph 0.31 in Rain Heavy Rain
11:42 AM 78.8 °F - 73.4 °F 83% 29.96 in 1.0 mi SSE 9.2 mph 25.3 mph 0.40 in Rain , Thunderstorm Heavy Thunderstorms and Rain
11:51 AM 80.1 °F 85.1 °F 75.0 °F 85% 29.96 in 8.0 mi ESE 9.2 mph - 0.40 in Rain Light Rain
12:51 PM 84.0 °F 93.7 °F 77.0 °F 79% 29.96 in 10.0 mi East 16.1 mph - 0.01 in   Mostly Cloudy
1:51 PM 86.0 °F 96.9 °F 77.0 °F 74% 29.94 in 10.0 mi East 16.1 mph - N/A   Scattered Clouds
2:51 PM 87.1 °F 98.8 °F 77.0 °F 72% 29.92 in 10.0 mi East 23.0 mph 27.6 mph N/A   Scattered Clouds
3:51 PM 87.1 °F 97.3 °F 75.9 °F 69% 29.91 in 10.0 mi East 17.3 mph 27.6 mph N/A   Scattered Clouds
4:51 PM 86.0 °F 96.0 °F 75.9 °F 72% 29.91 in 10.0 mi East 19.6 mph 25.3 mph N/A   Scattered Clouds
5:51 PM 84.9 °F 95.3 °F 77.0 °F 77% 29.91 in 10.0 mi East 18.4 mph 25.3 mph 0.00 in   Scattered Clouds
6:51 PM 84.0 °F 92.6 °F 75.9 °F 76% 29.91 in 10.0 mi East 15.0 mph - N/A   Partly Cloudy
7:51 PM 82.9 °F 88.8 °F 73.0 °F 72% 29.92 in 10.0 mi East 13.8 mph - N/A   Partly Cloudy
8:51 PM 82.9 °F 88.8 °F 73.0 °F 72% 29.94 in 10.0 mi East 13.8 mph - N/A   Partly Cloudy
9:51 PM 84.0 °F 92.6 °F 75.9 °F 76% 29.95 in 10.0 mi East 11.5 mph - N/A   Partly Cloudy
10:51 PM 84.0 °F 92.6 °F 75.9 °F 76% 29.96 in 10.0 mi East 13.8 mph - N/A   Partly Cloudy
11:51 PM 82.9 °F 90.8 °F 75.9 °F 79% 29.96 in 10.0 mi East 12.7 mph - N/A   Partly Cloudy